Hourly Data Report for October 04, 2017

All times are specified in Local Standard Time (LST). Add 1 hour to adjust for Daylight Saving Time where and when it is observed.

IQALUIT CLIMATE
NUNAVUT

63°44'50.000" N
68°32'40.000" W
33.50 m
2402592
71321
XFB

Download Data

Hourly Data (October 2017)
Hourly Data Report for October 4, 2017
Temp Definition
°C
Dew Point Temp Definition
°C
Rel Hum Definition
%
Wind Dir Definition
10's deg

Wind Spd Definition
km/h
Visibility Definition
km
Stn Press Definition
kPa
Hmdx Definition


Wind Chill Definition


Weather Definition


TIME
00:00 -3.0 -6.1 79 31 17   99.32   -9 LegendNANA
01:00 -2.9 -6.2 78 30 20   99.35   -9 LegendNANA
02:00 -3.5 -6.4 80 30 13   99.38   -8 LegendNANA
03:00 -2.5 -6.2 76 27 15   99.41   -7 LegendNANA
04:00 -1.8 -5.6 75 26 21   99.48   -8 LegendNANA
05:00 -3.1 -6.6 77 28 18   99.54   -9 LegendNANA
06:00 -2.9 -6.8 74 28 20   99.60   -9 LegendNANA
07:00 -2.4 -6.5 73 27 17   99.65   -8 LegendNANA
08:00 -1.8 -6.3 71 26 26   99.68   -8 LegendNANA
09:00 -1.1 -7.9 60 27 30   99.72   -8 LegendNANA
10:00 -1.1 -6.3 68 24 18   99.72   -6 LegendNANA
11:00 0.1 -4.7 70 21 10   99.73     LegendNANA
12:00 -0.4 -6.3 65 24 25   99.75   -6 LegendNANA
13:00 0.1 -5.8 65 21 25   99.72     LegendNANA
14:00 0.5 -5.2 66 20 21   99.75     LegendNANA
15:00 0.8 -4.5 68 20 23   99.75     LegendNANA
16:00 0.8 -4.2 69 19 27   99.73     LegendNANA
17:00 0.7 -3.6 73 19 14   99.77     LegendNANA
18:00 0.7 -3.5 74 20 24   99.80     LegendNANA
19:00 1.1 -3.2 73 19 21   99.81     LegendNANA
20:00 1.1 -2.9 75 18 23   99.80     LegendNANA
21:00 0.3 -1.7 87 14 16   99.80     LegendNANA
22:00 0.7 -1.3 87 15 11   99.78     LegendNANA
23:00 1.6 -2.2 76 21 22   99.75     LegendNANA

Notes on Data Quality.

Legend

  • E = Estimated
  • M = Missing
  • NA = Not Available
  • ‡ = Partner data that is not subject to review by the National Climate Archives
Date modified: